OPS 4682 DEB, 38456

Orbit data source: Space-Track

OPS 4682 DEB, 38456 is space debris in LEO originally from a launch on Sat, 03 Apr 1965 UTC launched from the Air Force Western Test Range (AFWTR). Debris objects in space refer to the collection of defunct objects orbiting the Earth. Examples of debris include non-operational satellites, rocket bodies, and fragments generated from explosions, collisions, or faulty payload assembly.

Loading next visibility...
Identifier
38456, 1965-027FM
Orbit
LEO
Country
Flag of USUS
Related business
Manufacturer
Unknown
Mission
Spacecraft
Bus & Motor
Unknown
Mass
Unknown
Launch date (UTC)
1965-04-03 (61 years ago)
Launch vehicle
Unknown
Launch site
Air Force Western Test Range (AFWTR)
Object type
Payload
Rocket body
Debris
Shape & HBR
Unknown shape, 0.1 m
Radar Cross Section
Small (<0.1 m²)

Expand to show TLE details & history
Last TLE update: 18 hours ago

TLE from 18 hours ago
0 OPS 4682 DEB
1 38456U 65027FM  26103.95586407  .00000095  00000-0  30231-3 0  9998
2 38456  90.2666   2.3517 0019570 177.5544 182.5676 12.97420682 81601
Epoch: 2026-04-13T22:56Z
TLE epoch observation values (Epoch: 2026-04-13T22:56:26.655Z)
Latitude
-0.00001°
Longitude
176.1016°
Altitude
1,290.049 km
Speed
7.204 km/s
True Right ascension
00h 09m 24s
True Declination
0° 00' 00"
Sunlit
Object was in daylight at epoch
Visualization orbit readout
Latitude
Unknown
Longitude
Unknown
Altitude
Unknown
Speed
Unknown
Apparent Right ascension
Unknown
Apparent Declination
Unknown
Sunlit
N/A
Visualization observer readout
Local Sidereal Time
23:47:14
Azimuth
Unknown
Elevation
Unknown
Doppler factor
Unknown
Orbital elements
Apogee altitude
1,284.306 km
Perigee altitude
1,254.374 km
Semi-major axis
7,647.477 km
Eccentricity
0.00196
Inclination
90.2666°
RAAN
2.3517°
Arg. of periapsis
177.5544°
True anomaly
182.55758°
Mean anomaly
182.5676°
Eccentric anomaly
182.56259°
Mean motion
3.24538 °/min
Orbital period
110.93 mins
BSTAR
0.00030231
Loading maneuver chart data...
Computing Atmospheric mass density...
Loading historical data...
Loading historical data...
Loading historical data...
Loading historical data...
Loading historical data...
Loading historical data...
Loading historical data...

Documentation

Showing up to 5 results
|